This demonstration page uses our WeatherBlox Daily Observations layout. Learn more.

40.92945, -100.16068

Hourly Observations for March 11, 2015

Temp ( °F °C ) Dew Point ( °F °C ) Humidity (%) Winds ( mph kmh ) Pressure ( in mb ) Visibility ( mi km ) Precip ( " mm )
12:15 am 00:15 Clear 32 0.2 22 -5.6 65 65 NW 5 7 30.24 1024 10 16.0934 N/A
12:35 am 00:35 Clear 32 0 21 -6 64 64 N 7 11 30.24 1024 10 16.0934 N/A
12:55 am 00:55 Clear 32 0.1 21 -5.9 64 64 NNE 3 6 30.24 1024 10 16.0934 N/A
1:15 am 01:15 Clear 33 0.4 21 -6 63 63 NNE 5 7 30.24 1024 10 16.0934 N/A
1:35 am 01:35 Clear 30 -1 21 -6 69 69 Calm 30.24 1024 10 16.0934 N/A
1:55 am 01:55 Clear 30 -1 21 -6.1 69 69 WNW 5 7 30.24 1024 10 16.0934 N/A
2:15 am 02:15 Clear 29 -1.4 22 -5.8 72 72 NW 5 7 30.24 1024 10 16.0934 N/A
2:35 am 02:35 Clear 29 -1.8 21 -6 73 73 NW 6 9 30.3 1026 10 16.0934 N/A
2:55 am 02:55 Clear 28 -2.1 22 -5.4 78 78 W 6 9 30.3 1026 10 16.0934 N/A
3:15 am 03:15 Clear 28 -2.3 22 -5.5 79 79 WNW 6 9 30.3 1026 10 16.0934 N/A
3:35 am 03:35 Clear 28 -2.5 22 -5.7 79 79 WNW 7 11 30.3 1026 10 16.0934 N/A
3:55 am 03:55 Clear 28 -2.3 22 -5.6 78 78 WNW 8 13 30.3 1026 10 16.0934 N/A
4:15 am 04:15 Clear 27 -2.7 22 -5.8 79 79 WNW 3 6 30.3 1026 10 16.0934 N/A
4:35 am 04:35 Clear 27 -3 21 -6.1 79 79 WNW 6 9 30.3 1026 10 16.0934 N/A
4:55 am 04:55 Clear 27 -3 21 -5.9 81 81 NW 10 17 30.3 1026 10 16.0934 N/A
5:15 am 05:15 Clear 27 -2.6 22 -5.5 81 81 NW 8 13 30.3 1026 10 16.0934 N/A
5:35 am 05:35 Clear 25 -3.7 20 -6.4 82 82 NNW 5 7 30.33 1027 10 16.0934 N/A
5:55 am 05:55 Clear 26 -3.6 21 -6.1 83 83 NW 5 7 30.36 1028 10 16.0934 N/A
6:15 am 06:15 Clear 25 -4 21 -6.3 84 84 NW 6 9 30.36 1028 10 16.0934 N/A
6:35 am 06:35 Clear 24 -4.2 20 -6.5 84 84 NW 5 7 30.36 1028 10 16.0934 N/A
6:55 am 06:55 Clear 24 -4.3 21 -6.3 86 86 WNW 5 7 30.39 1029 10 16.0934 N/A
7:15 am 07:15 Clear 25 -4.1 21 -6.1 86 86 WNW 6 9 30.39 1029 10 16.0934 N/A
7:35 am 07:35 Clear 25 -4 21 -6 86 86 WNW 8 13 30.39 1029 10 16.0934 N/A
7:55 am 07:55 Clear 25 -4 22 -5.8 87 87 W 6 9 30.39 1029 7 11.26538 N/A
8:15 am 08:15 Sunny 25 -4 21 -6.1 86 86 WSW 5 7 30.39 1029 7 11.26538 N/A
8:35 am 08:35 Sunny with Mist and Fog 27 -3 22 -5.3 84 84 SW 3 6 30.36 1028 4 6.43736 N/A
8:55 am 08:55 Hazy 30 -0.9 25 -3.9 80 80 Calm 30.36 1028 4 6.43736 N/A
9:15 am 09:15 Sunny 33 0.7 27 -2.7 78 78 NW 3 6 30.33 1027 10 16.0934 N/A
9:35 am 09:35 Sunny 36 2.3 30 -1.3 77 77 WNW 3 6 30.36 1028 10 16.0934 N/A
9:55 am 09:55 Sunny 39 3.9 31 -0.4 74 74 Calm 30.33 1027 10 16.0934 N/A
10:15 am 10:15 Sunny 42 5.6 32 0 68 68 Calm 30.3 1026 10 16.0934 N/A
10:35 am 10:35 Sunny 45 7.2 32 0 61 61 SSE 3 6 30.3 1026 10 16.0934 N/A
10:55 am 10:55 Sunny 48 8.9 32 -0.1 54 54 Calm 30.3 1026 10 16.0934 N/A
11:15 am 11:15 Sunny 51 10.7 31 -0.3 47 47 SE 5 7 30.27 1025 10 16.0934 N/A
11:35 am 11:35 Sunny 55 12.6 32 -0.2 42 42 SSE 6 9 30.21 1023 10 16.0934 N/A
11:55 am 11:55 Sunny 58 14.5 31 -0.8 35 35 SE 6 9 30.21 1023 10 16.0934 N/A
12:15 pm 12:15 Sunny 65 18.3 28 -2.4 25 25 S 13 20 30.18 1022 10 16.0934 N/A
12:35 pm 12:35 Sunny 68 19.8 23 -4.9 18 18 S 15 24 30.15 1021 10 16.0934 N/A
12:55 pm 12:55 Sunny 69 20.5 23 -5.1 17 17 S 14 22 30.15 1021 10 16.0934 N/A
1:15 pm 13:15 Sunny 70 20.9 22 -5.6 16 16 SSW 14 22 30.15 1021 10 16.0934 N/A
1:35 pm 13:35 Sunny 71 21.4 22 -5.8 16 16 SSW 14 22 30.15 1021 10 16.0934 N/A
1:55 pm 13:55 Sunny 71 21.5 21 -6.3 15 15 SSW 15 24 30.09 1019 10 16.0934 N/A
2:15 pm 14:15 Sunny 71 21.4 20 -6.4 15 15 SSW 13 20 30.12 1020 10 16.0934 N/A
2:35 pm 14:35 Sunny 71 21.6 21 -6.1 15 15 S 13 20 30.06 1018 10 16.0934 N/A
2:55 pm 14:55 Sunny 71 21.7 20 -6.4 15 15 SSW 15 24 30.06 1018 10 16.0934 N/A
3:15 pm 15:15 Sunny 72 22.3 20 -6.7 14 14 S 13 20 30.06 1018 10 16.0934 N/A
3:35 pm 15:35 Sunny 72 22.3 20 -6.5 14 14 SSW 9 15 30.06 1018 10 16.0934 N/A
3:55 pm 15:55 Sunny 73 22.8 20 -6.5 14 14 SW 16 26 30.06 1018 10 16.0934 N/A
4:15 pm 16:15 Sunny 73 22.9 19 -7.1 13 13 SW 10 17 30.06 1018 10 16.0934 N/A
4:35 pm 16:35 Sunny 73 23 19 -7 13 13 S 10 17 30.03 1017 10 16.0934 N/A
4:55 pm 16:55 Sunny 74 23.1 19 -7.1 13 13 SSW 15 24 30.03 1017 10 16.0934 N/A
5:15 pm 17:15 Sunny 74 23.2 19 -7.1 13 13 SSW 13 20 30.03 1017 10 16.0934 N/A
5:35 pm 17:35 Sunny 73 23 19 -7 13 13 SSW 13 20 30.03 1017 10 16.0934 N/A
5:55 pm 17:55 Sunny 73 22.9 20 -6.9 13 13 S 13 20 30.03 1017 10 16.0934 N/A
6:15 pm 18:15 Sunny 73 22.5 19 -7.1 13 13 S 13 20 30.03 1017 10 16.0934 N/A
6:35 pm 18:35 Sunny 71 21.9 19 -7 14 14 S 16 26 30.03 1017 10 16.0934 N/A
6:55 pm 18:55 Sunny 70 21 19 -7 15 15 S 9 15 30.06 1018 10 16.0934 N/A
7:15 pm 19:15 Sunny 66 19 21 -6.2 18 18 SSE 8 13 30.06 1018 10 16.0934 N/A
7:35 pm 19:35 Sunny 62 16.7 22 -5.7 21 21 SSE 8 13 30.09 1019 10 16.0934 N/A
7:55 pm 19:55 Clear 60 15.8 22 -5.8 22 22 SSE 9 15 30.09 1019 10 16.0934 N/A
8:15 pm 20:15 Clear 56 13.6 22 -5.7 26 26 SSE 9 15 30.12 1020 10 16.0934 N/A
8:35 pm 20:35 Clear 57 13.8 22 -5.5 26 26 SE 8 13 30.12 1020 10 16.0934 N/A
8:55 pm 20:55 Clear 58 14.3 22 -5.6 25 25 SE 8 13 30.12 1020 10 16.0934 N/A
9:15 pm 21:15 Clear 56 13.3 22 -5.6 27 27 SE 8 13 30.12 1020 10 16.0934 N/A
9:35 pm 21:35 Clear 55 12.9 22 -5.7 27 27 SE 8 13 30.15 1021 10 16.0934 N/A
9:55 pm 21:55 Clear 55 12.7 22 -5.7 27 27 SE 8 13 30.15 1021 10 16.0934 N/A
10:15 pm 22:15 Clear 54 12.1 23 -5.1 30 30 SSE 9 15 30.15 1021 10 16.0934 N/A
10:35 pm 22:35 Clear 53 11.7 24 -4.5 32 32 SE 10 17 30.15 1021 10 16.0934 N/A
10:55 pm 22:55 Clear 54 12.1 24 -4.3 32 32 SSE 13 20 30.15 1021 10 16.0934 N/A
11:15 pm 23:15 Clear 54 12.1 25 -4 33 33 SSE 14 22 30.15 1021 10 16.0934 N/A
11:35 pm 23:35 Clear 53 11.8 25 -3.7 34 34 SSE 13 20 30.15 1021 10 16.0934 N/A
11:55 pm 23:55 Clear 52 11 26 -3.5 36 36 SSE 13 20 30.21 1023 10 16.0934 N/A

Powered by AerisWeather